,,PA_Meas_PMT16A,,PR_Meas_QMR101_102,,RH_Meas_QMH101,,SR_Meas_QMS101,,TA_Meas_QMH101,,GenWind,,GenWind,
time,status,PA,status,PR,status,RH,status,SR,status,TA,status,DirAvg,status,SpdAvg,
2016-03-18, 16:21:04,VALID,915.695,VALID,0,VALID,79.7257,VALID,77.68,VALID,25.9604,VALID,26,VALID,0,
2016-03-18, 16:22:04,VALID,915.685,VALID,0,VALID,81.9365,VALID,83.1595,VALID,25.9995,VALID,26,VALID,0,
2016-03-18, 16:23:04,VALID,915.641,VALID,0,VALID,80.206,VALID,87.5645,VALID,26.0581,VALID,26,VALID,0,
2016-03-18, 16:24:04,VALID,915.63,VALID,0,VALID,80.3584,VALID,89.7134,VALID,26.019,VALID,26,VALID,0,
2016-03-18, 16:25:04,VALID,915.637,VALID,0,VALID,82.958,VALID,88.9613,VALID,26.021,VALID,33,VALID,0,
2016-03-18, 16:26:04,VALID,915.658,VALID,0,VALID,82.8818,VALID,84.986,VALID,25.98,VALID,34,VALID,0,
2016-03-18, 16:27:04,VALID,915.657,VALID,0,VALID,82.5692,VALID,78.0023,VALID,26.019,VALID,34,VALID,0,
2016-03-18, 16:51:04,VALID,915.791,VALID,0,VALID,83.4535,VALID,79.9362,VALID,25.4722,VALID,29,VALID,0,
2016-03-18, 16:52:04,VALID,915.765,VALID,0,VALID,82.4777,VALID,84.7711,VALID,25.4722,VALID,29,VALID,0,
2016-03-18, 16:53:04,VALID,915.732,VALID,0,VALID,83.9872,VALID,89.8208,VALID,25.4917,VALID,16,VALID,0,
2016-03-18, 16:54:04,VALID,915.719,VALID,0,VALID,81.662,VALID,94.1184,VALID,25.4917,VALID,14,VALID,0,
2016-03-18, 16:55:04,VALID,915.726,VALID,0,VALID,82.3176,VALID,98.4161,VALID,25.4722,VALID,14,VALID,0,
2016-03-18, 16:56:04,VALID,915.693,VALID,0,VALID,82.4015,VALID,103.144,VALID,25.4136,VALID,14,VALID,0,
2016-03-18, 16:57:04,VALID,915.703,VALID,0,VALID,81.9746,VALID,106.582,VALID,25.3765,VALID,14,VALID,0,
2016-03-18, 16:58:04,VALID,915.702,VALID,0,VALID,83.7661,VALID,107.334,VALID,25.3355,VALID,14,VALID,0,
2016-03-18, 16:59:04,VALID,915.727,VALID,0,VALID,83.9948,VALID,107.011,VALID,25.4136,VALID,14,VALID,0,
2016-03-18, 17:00:04,VALID,915.707,VALID,0,VALID,81.5248,VALID,105.615,VALID,25.4741,VALID,4,VALID,0,
2016-03-18, 17:01:04,VALID,915.713,VALID,0,VALID,81.601,VALID,102.929,VALID,25.4546,VALID,4,VALID,0,
2016-03-18, 17:02:04,VALID,915.697,VALID,0,VALID,81.0979,VALID,99.5979,VALID,25.4546,VALID,341,VALID,0,
2016-03-18, 17:03:04,VALID,915.689,VALID,0,VALID,81.601,VALID,97.4491,VALID,25.4136,VALID,340,VALID,0,
2016-03-18, 17:04:04,VALID,915.715,VALID,0,VALID,82.5082,VALID,95.6226,VALID,25.4351,VALID,340,VALID,0,
2016-03-18, 17:05:04,VALID,915.694,VALID,0,VALID,83.4307,VALID,95.0854,VALID,25.3746,VALID,340,VALID,0,
2016-03-18, 17:06:04,VALID,915.717,VALID,0,VALID,84.3683,VALID,95.9449,VALID,25.355,VALID,340,VALID,0,
2016-03-18, 17:07:04,VALID,915.694,VALID,0,VALID,84.4598,VALID,96.5896,VALID,25.3941,VALID,340,VALID,0,
2016-03-18, 17:08:04,VALID,915.706,VALID,0,VALID,86.3657,VALID,96.1598,VALID,25.4937,VALID,340,VALID,0,
2016-03-18, 17:09:04,VALID,915.71,VALID,0,VALID,80.9302,VALID,95.4077,VALID,25.5113,VALID,340,VALID,0,
2016-03-18, 17:10:04,VALID,915.759,VALID,0,VALID,80.6786,VALID,94.8705,VALID,25.5523,VALID,340,VALID,0,
2016-03-18, 17:11:04,VALID,915.753,VALID,0,VALID,80.4728,VALID,94.3333,VALID,25.5523,VALID,340,VALID,0,
2016-03-18, 17:12:04,VALID,915.766,VALID,0,VALID,80.5109,VALID,93.6887,VALID,25.5523,VALID,340,VALID,0,
2016-03-18, 17:13:04,VALID,915.81,VALID,0,VALID,80.8463,VALID,92.1845,VALID,25.5698,VALID,340,VALID,0,
2016-03-18, 17:14:04,VALID,915.816,VALID,0,VALID,81.0064,VALID,90.6803,VALID,25.6304,VALID,340,VALID,0,
2016-03-18, 17:15:04,VALID,915.854,VALID,0,VALID,80.5338,VALID,90.4654,VALID,25.689,VALID,340,VALID,0,
2016-03-18, 17:16:04,VALID,915.885,VALID,0,VALID,80.5566,VALID,90.8952,VALID,25.7476,VALID,340,VALID,0,
2016-03-18, 17:17:04,VALID,915.9,VALID,0,VALID,80.0916,VALID,92.8292,VALID,25.7476,VALID,340,VALID,0,
2016-03-18, 17:18:04,VALID,915.948,VALID,0,VALID,80.7548,VALID,95.6226,VALID,25.7085,VALID,340,VALID,0,
2016-03-18, 17:19:04,VALID,915.926,VALID,0,VALID,81.5934,VALID,97.9863,VALID,25.6694,INVALID,360,VALID,0,
2016-03-18, 17:20:04,VALID,915.986,VALID,0,VALID,81.8526,VALID,100.457,VALID,25.7085,VALID,340,VALID,0,
2016-03-18, 17:21:04,VALID,916.011,VALID,0,VALID,80.6405,VALID,103.681,VALID,25.6499,VALID,340,VALID,0,
2016-03-18, 17:22:04,VALID,915.986,VALID,0,VALID,81.4486,VALID,106.582,VALID,25.6714,VALID,340,VALID,0,
2016-03-18, 17:23:04,VALID,916.024,VALID,0,VALID,81.5019,VALID,109.375,VALID,25.6714,VALID,340,VALID,0,
2016-03-18, 17:24:04,VALID,916.036,VALID,0,VALID,81.8679,VALID,111.631,VALID,25.6128,VALID,340,VALID,0,
2016-03-18, 17:25:04,VALID,916.057,VALID,0,VALID,82.3939,VALID,112.061,VALID,25.5542,VALID,340,VALID,0,
2016-03-18, 17:26:04,VALID,916.046,VALID,0,VALID,84.3683,VALID,113.028,VALID,25.5347,VALID,340,VALID,0,
2016-03-18, 17:27:04,VALID,916.068,VALID,0,VALID,85.1307,VALID,111.631,VALID,25.4956,VALID,340,VALID,0,
2016-03-18, 17:28:04,VALID,916.047,VALID,0,VALID,85.6948,VALID,108.408,VALID,25.5151,VALID,340,VALID,0,
2016-03-18, 17:29:04,VALID,916.094,VALID,0,VALID,87.4482,VALID,106.689,VALID,25.5737,VALID,340,VALID,0,
2016-03-18, 17:30:04,VALID,916.083,VALID,0,VALID,86.2742,VALID,104.755,VALID,25.6519,INVALID,360,VALID,0,
2016-03-18, 17:31:04,VALID,916.088,VALID,0,VALID,84.3683,VALID,102.284,VALID,25.6714,VALID,340,VALID,0,
2016-03-18, 17:32:04,VALID,916.082,VALID,0,VALID,85.611,VALID,99.8128,VALID,25.6909,VALID,340,VALID,0,
2016-03-18, 17:33:04,VALID,916.074,VALID,0,VALID,86.2285,VALID,97.3417,VALID,25.7691,VALID,340,VALID,0,
2016-03-18, 17:34:04,VALID,916.061,VALID,0,VALID,84.2083,VALID,95.5152,VALID,25.8062,VALID,340,VALID,0,
2016-03-18, 17:35:04,VALID,916.068,VALID,0,VALID,82.1423,VALID,92.2919,VALID,25.8472,VALID,340,VALID,0,
2016-03-18, 17:36:04,VALID,916.088,VALID,0,VALID,83.8576,VALID,89.2836,VALID,25.8452,VALID,340,VALID,0,
2016-03-18, 17:37:04,VALID,916.073,VALID,0,VALID,85.1841,VALID,87.1348,VALID,25.8472,VALID,340,VALID,0,
2016-03-18, 17:38:04,VALID,916.112,VALID,0,VALID,87.0975,VALID,84.3413,VALID,25.8648,VALID,340,VALID,0,
2016-03-18, 17:39:04,VALID,916.099,VALID,0,VALID,83.8957,VALID,82.5148,VALID,25.8863,VALID,340,VALID,0,
2016-03-18, 17:40:04,VALID,916.132,VALID,0,VALID,84.8105,VALID,80.366,VALID,25.8843,VALID,340,VALID,0,
2016-03-18, 17:41:04,VALID,916.126,VALID,0,VALID,84.3531,VALID,77.68,VALID,25.9058,VALID,340,VALID,0,
